Temp
-5 -4 -4 -4 -4 -4 -4 -4 -4 -4 -4 -4 -4 -4 -4 -4 -4 -4 -4 -4 -4 -4 -4 -4 -4 -4 -5 -5 -5 -5 -5 -5 -6 -6 -6 -5 -6 -6 -6 -6 -6 -6 -6 -6 -6
-5 -4 -4 -4 -4 -4 -4 -4 -4 -4 -4 -4 -4 -4 -4 -4 -4 -4 -4 -4 -4 -4 -4 -4 -4 -5 -5 -5 -5 -5 -5 -5 -6 -6 -6 -5 -6 -6 -6 -6 -6 -6 -6 -6 -6
-5 -5 -4 -4 -4 -4 -4 -4 -4 -4 -4 -4 -4 -4 -4 -4 -4 -4 -4 -4 -4 -4 -4 -4 -5 -6 -6 -5 -5 -5 -5 -5 -6 -6 -6 -5 -6 -6 -6 -6 -6 -6 -6 -6 -5
-5 -5 -5 -5 -5 -5 -5 -4 -4 -4 -4 -4 -4 -5 -5 -4 -5 -5 -5 -4 -4 -4 -4 -5 -5 -6 -6 -5 -5 -5 -5 -6 -5 -6 -5 -5 -6 -6 -6 -6 -6 -6 -6 -6 -5
-5 -5 -5 -5 -5 -5 -5 -5 -5 -5 -5 -5 -5 -5 -5 -5 -5 -5 -5 -5 -5 -5 -5 -6 -6 -6 -6 -6 -5 -5 -5 -6 -6 -5 -6 -6 -6 -5 -5 -6 -6 -6 -6 -6 -5
-5 -5 -5 -5 -5 -5 -5 -5 -5 -5 -5 -5 -5 -5 -5 -5 -5 -5 -5 -5 -5 -5 -6 -6 -6 -6 -6 -6 -5 -6 -6 -6 -6 -6 -5 -6 -6 -6 -6 -6 -6 -6 -6 -6 -5
-5 -5 -5 -5 -5 -5 -5 -5 -5 -5 -5 -5 -5 -5 -5 -6 -6 -6 -6 -6 -6 -6 -7 -7 -7 -7 -7 -6 -6 -6 -6 -6 -6 -6 -6 -6 -6 -6 -6 -5 -5 -6 -6 -6 -6
-5 -5 -5 -5 -5 -5 -5 -5 -5 -5 -5 -6 -6 -6 -6 -6 -6 -6 -6 -6 -6 -6 -7 -7 -8 -7 -7 -7 -7 -6 -6 -6 -6 -7 -7 -7 -6 -6 -6 -6 -5 -6 -6 -6 -6
-6 -6 -5 -5 -5 -5 -5 -5 -5 -5 -5 -5 -6 -6 -6 -6 -6 -6 -6 -6 -6 -6 -7 -8 -8 -8 -8 -8 -7 -7 -7 -7 -7 -7 -7 -7 -6 -6 -6 -6 -6 -6 -6 -6 -6
-6 -6 -6 -6 -6 -6 -5 -6 -6 -6 -5 -5 -6 -6 -6 -6 -6 -6 -6 -6 -6 -7 -7 -7 -8 -8 -8 -8 -8 -7 -8 -8 -8 -8 -8 -7 -7 -7 -7 -6 -6 -6 -6 -6 -6
-7 -7 -6 -6 -6 -6 -6 -6 -6 -6 -6 -6 -6 -6 -5 -6 -6 -6 -6 -6 -6 -7 -7 -7 -8 -8 -8 -9 -8 -8 -8 -8 -7 -8 -8 -8 -7 -8 -7 -7 -7 -7 -6 -6 -6
-7 -7 -7 -7 -6 -6 -7 -7 -6 -6 -6 -6 -6 -6 -6 -6 -6 -6 -6 -6 -6 -7 -7 -7 -8 -8 -8 -9 -9 -9 -9 -8 -8 -8 -8 -8 -7 -8 -8 -7 -7 -7 -7 -6 -6
-7 -7 -7 -7 -7 -7 -7 -7 -7 -7 -7 -6 -6 -6 -6 -6 -6 -6 -6 -6 -7 -7 -7 -7 -8 -8 -9 -9 -9 -10 -9 -9 -9 -8 -8 -8 -8 -7 -8 -8 -7 -7 -6 -7 -7
-7 -7 -7 -7 -7 -7 -7 -7 -7 -7 -7 -7 -7 -6 -6 -6 -7 -7 -6 -7 -7 -7 -7 -7 -8 -9 -9 -10 -10 -9 -9 -9 -9 -9 -8 -9 -8 -8 -8 -8 -8 -7 -7 -7 -6
-7 -7 -7 -7 -7 -7 -7 -7 -7 -7 -8 -8 -7 -7 -7 -7 -7 -7 -7 -7 -7 -7 -8 -8 -9 -9 -10 -10 -10 -10 -9 -9 -9 -8 -9 -8 -9 -8 -8 -8 -8 -7 -7 -7 -7
-7 -7 -7 -7 -7 -7 -7 -8 -8 -8 -8 -8 -8 -8 -8 -7 -7 -7 -7 -7 -7 -7 -7 -8 -9 -10 -10 -10 -10 -10 -10 -9 -9 -9 -10 -10 -8 -8 -8 -8 -7 -7 -6 -6 -6
-7 -7 -7 -7 -8 -8 -8 -8 -8 -8 -8 -8 -8 -8 -8 -8 -8 -8 -8 -7 -7 -7 -8 -9 -9 -10 -10 -11 -10 -10 -10 -10 -10 -9 -10 -9 -9 -8 -8 -8 -7 -7 -7 -7 -7
-7 -7 -7 -8 -8 -8 -8 -8 -8 -8 -9 -9 -9 -9 -8 -8 -8 -8 -8 -8 -8 -7 -8 -9 -9 -11 -11 -11 -11 -11 -10 -10 -9 -9 -9 -9 -9 -8 -8 -8 -7 -7 -7 -6 -6
-7 -7 -8 -8 -8 -8 -8 -8 -8 -8 -9 -9 -9 -9 -9 -9 -9 -9 -9 -9 -8 -8 -8 -9 -10 -10 -11 -11 -10 -10 -10 -9 -9 -9 -9 -9 -9 -9 -8 -8 -8 -8 -7 -7 -7
-8 -8 -8 -8 -8 -8 -8 -8 -8 -8 -8 -9 -9 -9 -9 -9 -9 -9 -9 -9 -9 -9 -9 -10 -10 -10 -10 -10 -10 -10 -10 -10 -9 -10 -9 -9 -10 -9 -9 -8 -8 -8 -8 -8 -7
-8 -8 -8 -8 -8 -8 -8 -8 -8 -8 -8 -8 -8 -9 -9 -10 -10 -10 -10 -10 -10 -9 -9 -10 -10 -10 -11 -11 -11 -10 -10 -10 -10 -9 -9 -9 -10 -10 -10 -9 -9 -9 -8 -9 -8
-8 -8 -8 -8 -8 -8 -8 -8 -8 -8 -8 -8 -8 -9 -9 -9 -10 -10 -10 -10 -10 -9 -9 -10 -10 -10 -10 -10 -10 -10 -10 -10 -10 -10 -10 -9 -9 -10 -10 -10 -10 -10 -10 -9 -9
-8 -8 -8 -8 -8 -8 -8 -8 -8 -8 -8 -8 -9 -9 -9 -10 -10 -10 -11 -11 -10 -11 -10 -10 -10 -10 -10 -10 -10 -10 -9 -10 -10 -11 -9 -9 -9 -10 -10 -10 -9 -9 -10 -10 -9
-8 -8 -8 -8 -8 -8 -8 -8 -8 -8 -8 -8 -9 -9 -9 -9 -10 -10 -12 -11 -11 -11 -11 -11 -10 -10 -10 -10 -11 -10 -10 -9 -10 -10 -10 -9 -10 -10 -10 -9 -9 -9 -9 -9 -9
-8 -8 -8 -8 -8 -8 -8 -8 -8 -8 -8 -8 -8 -9 -9 -9 -10 -10 -11 -11 -11 -11 -11 -11 -10 -10 -10 -10 -10 -11 -10 -10 -10 -9 -10 -9 -9 -9 -9 -9 -9 -9 -9 -9 -9
-8 -8 -8 -8 -8 -8 -8 -9 -9 -9 -9 -8 -8 -9 -9 -9 -9 -10 -10 -11 -11 -11 -11 -10 -10 -10 -10 -10 -10 -10 -11 -10 -10 -9 -9 -9 -9 -9 -9 -9 -9 -9 -9 -9 -9
-8 -8 -8 -8 -8 -9 -9 -8 -9 -9 -9 -9 -9 -9 -9 -9 -9 -9 -9 -10 -10 -11 -11 -11 -11 -11 -10 -10 -10 -10 -9 -10 -10 -9 -9 -9 -9 -9 -9 -9 -10 -10 -9 -9 -9
Height
5885 5885 5885 5885 5885 5885 5886 5887 5888 5888 5889 5890 5890 5890 5891 5892 5892 5893 5893 5895 5895 5895 5895 5895 5895 5895 5896 5896 5895 5895 5895 5894 5893 5893 5893 5892 5891 5891 5890 5889 5888 5888 5889 5888 5887
5887 5887 5887 5887 5887 5888 5888 5889 5889 5890 5890 5891 5892 5892 5892 5892 5892 5893 5894 5894 5894 5894 5894 5895 5894 5895 5895 5894 5894 5893 5894 5892 5892 5892 5892 5891 5890 5890 5890 5889 5887 5886 5888 5888 5887
5889 5889 5889 5890 5890 5890 5890 5891 5891 5891 5892 5892 5893 5893 5893 5893 5893 5893 5893 5893 5893 5893 5893 5893 5893 5894 5894 5893 5892 5893 5893 5891 5891 5891 5889 5888 5888 5889 5888 5888 5886 5885 5887 5888 5888
5890 5890 5891 5891 5892 5892 5892 5892 5892 5892 5893 5893 5893 5893 5893 5893 5894 5892 5892 5891 5892 5891 5891 5891 5892 5891 5891 5891 5891 5891 5891 5890 5889 5889 5887 5886 5887 5888 5888 5887 5886 5885 5886 5888 5888
5891 5891 5892 5892 5892 5892 5893 5893 5893 5893 5893 5893 5893 5893 5893 5893 5892 5891 5890 5889 5889 5889 5889 5890 5889 5888 5887 5888 5889 5889 5889 5888 5888 5887 5887 5886 5887 5887 5886 5886 5885 5885 5886 5887 5888
5891 5891 5891 5891 5892 5892 5892 5892 5892 5892 5892 5892 5892 5892 5893 5893 5891 5890 5889 5888 5887 5886 5887 5887 5886 5885 5885 5884 5886 5886 5887 5887 5886 5886 5885 5884 5885 5887 5887 5886 5886 5887 5887 5887 5888
5890 5890 5890 5890 5890 5891 5891 5891 5891 5891 5891 5891 5891 5891 5891 5892 5890 5889 5888 5887 5886 5885 5885 5884 5883 5883 5883 5882 5883 5884 5884 5884 5885 5884 5884 5883 5885 5884 5885 5885 5886 5887 5887 5886 5887
5887 5887 5888 5888 5888 5888 5889 5889 5889 5889 5889 5889 5889 5889 5889 5889 5889 5888 5887 5885 5884 5883 5883 5882 5881 5881 5881 5881 5881 5881 5883 5883 5884 5883 5883 5884 5884 5883 5883 5884 5885 5886 5886 5886 5886
5885 5885 5885 5885 5886 5886 5886 5886 5886 5886 5886 5886 5886 5886 5887 5887 5887 5886 5885 5884 5882 5881 5881 5880 5879 5879 5879 5879 5879 5880 5881 5882 5883 5882 5882 5883 5881 5881 5880 5881 5883 5885 5885 5886 5885
5883 5883 5882 5883 5883 5883 5883 5882 5882 5881 5882 5882 5882 5884 5883 5884 5883 5883 5882 5881 5880 5879 5879 5878 5878 5878 5877 5877 5878 5879 5880 5881 5880 5881 5880 5881 5881 5880 5880 5880 5881 5883 5884 5884 5884
5879 5879 5879 5880 5880 5881 5881 5880 5881 5880 5879 5879 5879 5879 5879 5880 5880 5880 5880 5879 5877 5877 5876 5875 5876 5876 5875 5875 5876 5877 5878 5879 5880 5880 5880 5881 5881 5880 5879 5878 5879 5881 5882 5882 5882
5874 5874 5875 5875 5876 5877 5877 5877 5877 5878 5877 5876 5876 5877 5877 5877 5878 5878 5878 5877 5875 5874 5873 5873 5874 5874 5874 5874 5875 5875 5877 5878 5879 5878 5879 5879 5880 5880 5879 5878 5878 5878 5880 5880 5881
5867 5867 5868 5869 5871 5872 5873 5873 5873 5873 5874 5874 5874 5874 5874 5875 5875 5875 5875 5874 5873 5872 5871 5870 5872 5873 5873 5873 5873 5874 5874 5876 5878 5878 5878 5879 5879 5879 5880 5879 5879 5877 5877 5878 5879
5861 5862 5862 5863 5865 5865 5867 5867 5868 5869 5870 5871 5870 5871 5870 5871 5872 5872 5871 5872 5870 5869 5869 5870 5871 5872 5872 5872 5873 5872 5873 5875 5876 5878 5879 5879 5879 5879 5878 5879 5878 5878 5878 5877 5877
5857 5857 5858 5858 5858 5859 5860 5860 5862 5864 5864 5866 5865 5866 5866 5868 5869 5869 5869 5869 5868 5868 5869 5869 5869 5870 5870 5871 5872 5873 5874 5875 5876 5878 5878 5878 5879 5878 5877 5877 5877 5877 5877 5877 5877
5853 5853 5853 5853 5853 5854 5854 5855 5857 5860 5859 5861 5861 5862 5863 5863 5864 5865 5866 5867 5866 5866 5866 5866 5867 5868 5869 5870 5871 5874 5875 5876 5877 5878 5878 5877 5878 5878 5877 5876 5876 5876 5877 5878 5878
5849 5849 5848 5847 5847 5848 5849 5851 5853 5852 5855 5856 5857 5859 5861 5861 5861 5862 5863 5864 5864 5864 5864 5865 5866 5867 5868 5870 5871 5872 5874 5875 5877 5878 5878 5877 5878 5876 5876 5875 5874 5876 5876 5877 5878
5846 5845 5842 5841 5842 5844 5846 5848 5848 5848 5849 5852 5855 5856 5858 5858 5859 5859 5860 5860 5861 5861 5862 5863 5865 5866 5869 5870 5871 5870 5871 5873 5874 5876 5877 5876 5876 5876 5876 5875 5875 5874 5875 5876 5876
5843 5841 5840 5839 5839 5841 5844 5844 5845 5845 5846 5848 5850 5852 5853 5854 5856 5857 5858 5858 5859 5860 5861 5862 5864 5865 5866 5868 5869 5868 5869 5871 5871 5873 5875 5876 5875 5874 5875 5875 5876 5875 5875 5875 5875
5841 5839 5839 5838 5838 5839 5841 5841 5841 5842 5843 5844 5846 5849 5850 5851 5853 5855 5855 5857 5858 5858 5859 5861 5863 5863 5865 5867 5867 5865 5867 5867 5868 5871 5873 5873 5874 5874 5875 5875 5876 5875 5874 5874 5874
5839 5839 5838 5837 5837 5837 5837 5837 5837 5839 5840 5841 5842 5844 5846 5848 5851 5852 5854 5855 5855 5856 5857 5858 5860 5862 5862 5864 5864 5863 5863 5864 5866 5868 5870 5871 5873 5873 5873 5873 5874 5875 5874 5874 5873
5838 5838 5836 5835 5836 5835 5834 5834 5834 5835 5836 5837 5838 5840 5842 5843 5846 5849 5852 5853 5854 5856 5857 5857 5857 5859 5860 5860 5861 5861 5862 5863 5863 5866 5866 5868 5872 5871 5871 5873 5873 5874 5874 5874 5874
5834 5834 5834 5833 5832 5832 5832 5831 5830 5831 5832 5832 5833 5834 5835 5838 5842 5845 5847 5848 5850 5851 5853 5855 5855 5857 5858 5859 5859 5860 5861 5861 5862 5863 5863 5866 5869 5869 5870 5872 5873 5872 5871 5872 5872
5832 5831 5830 5829 5828 5827 5827 5827 5827 5826 5827 5827 5828 5829 5830 5832 5834 5836 5839 5839 5842 5844 5846 5848 5850 5852 5855 5857 5857 5857 5859 5860 5860 5860 5862 5863 5865 5866 5867 5868 5869 5869 5869 5869 5868
5828 5827 5825 5825 5823 5822 5821 5821 5821 5820 5821 5822 5823 5823 5824 5825 5827 5828 5831 5834 5835 5838 5839 5840 5843 5845 5848 5849 5849 5851 5853 5855 5856 5857 5858 5859 5860 5862 5863 5864 5865 5865 5865 5865 5865
5822 5821 5820 5819 5818 5816 5815 5814 5813 5813 5813 5814 5815 5816 5817 5818 5819 5821 5823 5826 5829 5831 5831 5831 5833 5836 5839 5842 5843 5844 5847 5849 5851 5852 5854 5855 5856 5858 5859 5859 5861 5862 5862 5861 5861
5817 5815 5812 5810 5808 5806 5806 5805 5806 5805 5804 5805 5806 5807 5808 5810 5812 5812 5814 5816 5818 5821 5823 5824 5825 5826 5828 5833 5835 5834 5839 5842 5845 5847 5849 5850 5853 5853 5854 5855 5857 5858 5858 5857 5857
Wind_Speed
9 7 7 7 7 5 5 5 6 7 7 7 6 5 6 7 8 5 6 5 5 5 4 5 5 5 4 4 5 5 4 7 7 7 8 3 7 9 9 7 9 7 7 8 8
11 11 11 11 12 12 12 11 11 10 10 9 8 8 8 9 8 7 8 9 9 8 7 7 7 5 4 4 5 6 6 5 7 7 9 10 8 6 7 12 10 8 7 8 10
8 8 9 10 11 11 11 11 10 10 9 9 9 9 9 9 7 9 9 10 10 11 10 10 8 5 4 5 6 5 5 6 10 8 7 9 13 11 9 8 11 9 7 8 10
6 5 5 6 7 7 7 6 6 6 7 8 9 9 9 9 9 10 11 12 12 13 12 11 8 5 5 5 5 4 3 3 9 8 7 4 11 9 8 9 11 8 7 9 10
2 1 1 2 2 2 1 1 2 4 6 8 8 8 8 8 10 12 13 15 15 15 15 11 7 7 9 7 5 5 3 3 8 8 4 3 7 6 8 11 10 9 8 8 9
4 4 4 5 5 5 5 5 6 7 7 8 7 7 7 8 9 12 15 17 17 18 15 10 7 7 9 11 6 7 6 4 5 5 4 4 12 6 6 8 8 9 10 9 10
9 9 8 8 8 9 10 10 11 10 10 10 9 9 8 7 9 11 14 16 18 18 13 8 6 6 8 9 8 9 9 7 4 4 2 1 2 7 7 5 9 9 11 10 9
9 10 10 9 10 10 10 10 11 11 12 11 11 11 11 11 11 11 13 15 18 17 11 6 7 6 7 9 10 10 11 9 8 4 2 2 5 5 9 5 7 9 13 12 11
10 10 10 10 10 11 11 11 12 11 11 12 13 13 14 13 12 13 13 14 16 14 8 6 7 6 5 8 11 11 9 10 9 5 4 4 3 5 8 9 8 9 11 10 11
12 12 13 13 12 11 11 11 12 14 14 14 15 14 14 13 13 13 13 14 15 12 9 7 7 6 5 7 11 10 13 8 9 7 4 4 3 4 7 7 7 11 10 10 10
16 15 14 13 11 8 6 7 9 10 10 11 11 11 11 10 10 11 12 13 13 11 10 9 7 4 4 7 8 12 12 12 10 8 7 6 6 11 8 6 6 7 9 9 8
25 23 20 19 16 14 11 10 11 10 9 10 11 9 8 9 10 11 12 12 12 10 9 9 6 5 3 6 7 9 13 11 11 12 11 8 9 12 14 12 12 11 11 10 9
21 25 26 27 24 21 18 16 15 15 13 13 13 11 10 12 13 12 12 12 9 10 10 10 6 4 3 4 7 8 14 16 15 12 9 10 7 9 11 14 12 13 13 8 11
17 17 18 22 25 27 25 24 22 20 19 18 18 16 16 15 14 12 12 10 8 10 8 7 5 3 2 2 8 18 15 16 16 16 9 8 5 3 8 10 12 12 14 13 15
17 15 14 14 16 19 21 25 27 24 23 21 20 19 17 16 15 13 10 8 7 8 6 7 7 5 2 1 6 10 10 12 12 15 14 9 4 7 7 12 11 13 9 13 10
14 15 17 19 19 19 18 18 21 22 23 20 20 19 17 15 14 12 10 8 6 8 8 7 11 8 4 4 6 10 12 9 5 5 6 6 5 5 6 12 15 14 11 9 9
16 18 20 18 17 17 15 16 16 20 22 21 19 18 15 15 15 12 11 10 7 9 7 13 11 8 2 1 7 10 14 13 7 6 9 6 2 9 7 1 9 15 14 12 12
13 14 15 12 12 13 10 9 11 16 21 21 17 16 15 15 15 15 13 11 10 12 10 15 12 11 7 5 8 13 16 17 13 12 9 7 5 8 8 4 6 6 4 11 12
9 10 11 8 6 9 9 9 10 8 15 20 20 20 19 18 16 14 15 12 11 10 11 17 15 11 7 9 15 14 15 15 15 14 10 4 2 3 6 4 1 2 1 3 6
7 7 9 7 6 8 11 13 13 11 9 17 22 22 20 20 19 15 16 12 11 14 16 18 16 14 11 10 12 13 16 16 15 13 11 7 2 7 6 7 1 4 5 5 3
8 7 8 8 6 5 8 9 10 11 14 15 19 23 23 23 21 20 19 16 15 17 18 20 18 14 12 12 8 3 8 14 14 14 14 11 6 1 2 7 6 4 2 11 7
10 8 8 10 9 12 11 13 14 12 11 14 17 19 20 21 21 22 20 19 17 14 16 18 20 19 17 15 12 10 8 12 13 12 15 14 9 11 4 4 4 6 4 5 6
12 12 12 13 13 12 12 13 14 15 14 15 16 17 21 24 20 24 24 26 22 21 21 20 17 16 20 19 16 15 10 7 7 11 13 13 7 10 8 8 9 10 7 9 12
12 14 15 16 18 19 18 17 17 17 15 13 17 20 21 23 27 28 26 23 19 23 26 29 25 22 19 16 16 17 20 16 14 14 10 7 8 8 11 10 7 9 11 15 17
16 17 18 18 19 20 24 23 22 22 21 20 18 20 23 26 27 31 32 32 28 26 28 30 20 21 19 22 21 20 20 22 21 19 18 13 12 11 13 13 9 8 10 14 17
19 20 22 25 26 26 26 25 28 29 28 26 26 25 24 23 25 28 29 32 37 34 33 35 31 28 28 24 23 22 24 23 25 25 18 16 17 15 13 11 13 12 13 13 16
21 21 25 30 30 28 30 30 30 30 33 32 31 30 30 28 27 27 27 29 31 33 36 40 40 37 37 33 31 34 26 24 24 23 18 13 12 18 17 9 9 13 14 14 15
Wind_Direction
75 83 87 85 90 104 116 109 103 101 99 96 87 71 52 39 40 43 43 21 11 5 348 316 321 319 325 328 316 300 324 306 325 325 288 213 229 215 232 244 232 212 203 185 160
81 84 85 85 86 90 94 96 92 86 80 73 63 51 40 35 31 30 8 359 354 342 329 323 323 333 323 288 288 296 304 316 322 307 269 266 239 203 217 241 216 201 211 198 164
84 84 83 91 95 95 94 90 84 77 66 56 48 40 35 31 26 17 2 347 339 331 327 319 321 332 277 260 282 275 281 313 315 325 302 272 229 221 229 218 212 196 208 191 172
77 87 89 103 104 106 100 89 72 53 37 25 18 18 22 22 25 6 359 347 343 335 325 323 327 305 268 244 238 223 233 306 303 330 337 271 237 231 212 209 207 194 203 202 195
19 37 103 138 144 149 141 21 1 358 357 357 357 2 5 13 7 359 356 348 345 339 336 347 318 285 270 259 219 184 139 257 294 324 331 200 204 231 206 210 200 193 208 215 216
288 277 268 266 259 259 271 281 292 306 318 326 333 339 346 356 349 345 346 344 341 335 342 340 312 280 262 262 247 216 221 227 294 323 4 240 220 231 216 210 201 190 206 209 222
279 273 269 268 268 268 269 273 277 283 291 300 307 314 322 328 332 332 336 337 335 334 338 338 297 275 250 253 252 231 214 199 240 290 29 108 219 242 232 211 199 190 205 203 214
278 273 269 269 270 271 275 279 281 281 282 284 287 294 301 304 311 316 328 331 332 334 328 324 297 287 262 248 244 229 218 213 217 268 237 211 204 215 206 227 209 199 210 207 211
274 274 271 271 271 272 276 278 279 276 273 274 277 281 283 292 298 306 317 324 327 328 322 289 292 303 273 251 248 230 217 206 232 211 221 229 217 224 220 201 206 210 206 215 228
282 278 276 274 272 273 276 277 270 267 267 267 271 273 279 283 288 300 306 314 321 318 306 275 277 285 283 256 247 209 196 235 190 178 185 198 139 141 186 205 205 223 240 242 244
268 269 271 268 267 266 274 276 275 278 277 271 269 271 278 281 284 292 300 310 315 307 294 274 260 274 290 260 238 195 204 219 211 192 183 182 187 173 195 225 226 232 233 230 242
264 261 262 263 263 262 265 267 272 278 287 284 279 274 280 285 282 290 296 301 314 296 280 268 248 255 284 267 216 207 208 200 201 196 194 192 187 185 188 208 213 205 217 227 241
270 264 259 260 259 257 255 259 260 266 274 279 280 278 278 278 282 289 295 301 312 279 266 257 254 248 257 239 194 198 197 205 200 199 189 192 189 205 202 211 222 200 190 200 224
281 279 272 266 261 258 256 256 258 263 266 270 274 271 273 275 277 287 294 298 296 271 275 260 234 216 178 265 204 195 198 200 212 209 182 182 219 253 237 224 228 230 230 205 202
283 282 280 276 270 261 257 253 253 256 264 263 267 266 270 273 278 282 283 282 286 273 244 209 198 188 185 232 229 237 223 204 220 216 192 197 229 249 249 220 229 229 245 213 207
282 280 282 279 271 263 261 260 253 249 252 257 260 264 270 273 276 283 273 266 277 263 240 195 183 184 225 295 288 257 218 217 179 169 215 210 219 251 243 248 235 229 242 234 213
279 286 294 285 268 261 262 260 260 247 245 246 254 262 270 275 281 286 280 264 246 233 206 185 176 174 146 324 278 278 264 231 269 225 239 233 229 239 230 332 227 232 241 253 249
295 305 310 292 267 252 249 259 270 255 239 243 253 260 264 271 280 287 286 260 242 226 208 197 175 157 178 221 240 239 247 253 250 228 216 223 288 267 269 231 147 160 209 242 244
309 315 323 310 276 237 242 258 276 283 239 234 241 246 253 259 257 268 273 251 226 204 188 179 181 180 204 238 260 269 263 247 241 225 206 171 69 302 185 225 125 110 165 215 221
330 321 328 314 287 258 256 265 269 267 260 231 240 244 244 249 255 263 245 228 202 179 177 180 183 181 205 233 263 265 259 247 235 233 218 176 148 98 86 198 121 67 107 96 68
331 326 309 312 295 293 279 272 277 267 261 255 241 240 242 244 244 243 238 210 211 207 211 200 205 199 214 231 241 311 243 245 244 236 225 219 209 170 1 115 175 174 56 348 349
312 317 299 296 294 288 280 271 275 273 261 261 267 264 246 240 241 232 224 223 233 247 236 214 220 212 224 226 231 239 229 222 234 246 240 242 228 269 234 102 155 182 330 323 297
301 298 294 291 288 287 286 281 278 276 268 256 255 260 258 252 251 243 233 230 225 228 232 234 242 227 232 235 245 253 260 249 267 266 255 244 272 276 269 275 263 290 240 277 270
310 305 299 289 283 279 276 271 268 272 273 261 246 253 259 260 260 260 254 263 253 248 223 231 238 246 254 243 253 258 252 251 247 259 264 248 273 288 294 294 286 293 254 253 262
304 302 300 296 289 285 277 270 265 264 266 263 257 252 251 257 260 262 257 248 262 266 248 245 237 250 249 247 267 277 254 255 251 251 258 262 258 263 276 269 263 293 301 265 262
306 308 307 301 290 283 278 276 266 265 263 262 260 253 252 252 255 256 258 256 252 252 258 266 250 247 250 248 258 262 265 266 251 246 253 256 253 261 268 259 253 267 297 270 247
303 306 313 318 309 292 275 271 263 263 263 262 259 258 255 253 252 252 253 254 249 247 247 251 259 260 258 258 258 256 257 270 262 253 265 255 271 264 258 258 237 257 291 280 263